This is the latest recevied weather packets stored in our database for station/object N6ZHV-13. If no packets are shown the sender has not sent any weather packets the latest 1 day(s).
| Time | Temp. | Humidity | Pressure | Rain* | Wind** | Luminosity | Snow |
|---|---|---|---|---|---|---|---|
| 1778088590 | 18.33° C | 63% | 1020.5 hPa | 0 mm | - | - | - |
| 1778088290 | 18.33° C | 61% | 1020.5 hPa | 0 mm | - | - | - |
| 1778087990 | 17.78° C | 64% | 1020.5 hPa | 0 mm | - | - | - |
| 1778087390 | 17.78° C | 67% | 1020.6 hPa | 0 mm | - | - | - |
| 1778087090 | 17.22° C | 68% | 1020.7 hPa | 0 mm | - | - | - |
| 1778086490 | 17.22° C | 70% | 1020.8 hPa | 0 mm | - | - | - |
| 1778086190 | 17.22° C | 71% | 1020.8 hPa | 0 mm | - | - | - |
| 1778085890 | 17.22° C | 71% | 1020.8 hPa | 0 mm | - | - | - |
| 1778085290 | 16.67° C | 71% | 1020.9 hPa | 0 mm | - | - | - |
| 1778084690 | 16.67° C | 72% | 1021 hPa | 0 mm | - | - | - |
| 1778084390 | 16.67° C | 72% | 1021 hPa | 0 mm | - | - | - |
| 1778063990 | 11.11° C | 86% | 1019.3 hPa | 0 mm | - | - | - |
| 1778062190 | 11.67° C | 85% | 1019.2 hPa | 0 mm | - | - | - |
| 1778059190 | 12.22° C | 85% | 1019.3 hPa | 0 mm | - | - | - |
| 1778057391 | 12.22° C | 86% | 1019.5 hPa | 0 mm | - | - | - |
| 1778057091 | 12.22° C | 86% | 1019.5 hPa | 0 mm | - | - | - |
| 1778056791 | 12.22° C | 86% | 1019.5 hPa | 0 mm | - | - | - |
| 1778056491 | 12.22° C | 86% | 1019.5 hPa | 0 mm | - | - | - |
| 1778056191 | 12.22° C | 86% | 1019.5 hPa | 0 mm | - | - | - |
| 1778055891 | 12.22° C | 86% | 1019.4 hPa | 0 mm | - | - | - |
| 1778055591 | 12.22° C | 86% | 1019.6 hPa | 0 mm | - | - | - |
| 1778055291 | 12.22° C | 86% | 1019.6 hPa | 0 mm | - | - | - |
| 1778054991 | 12.22° C | 86% | 1019.6 hPa | 0 mm | - | - | - |
| 1778054691 | 12.22° C | 86% | 1019.6 hPa | 0 mm | - | - | - |
| 1778054391 | 12.22° C | 87% | 1019.6 hPa | 0 mm | - | - | - |
* Rain latest hour (hover to see other rain measurements)
** Current wind speed in m/s (hover to see current wind gust speed)